Weather History for Burbank, CA

Change the Weather History Date:

Monday, May 12, 2014

  Actual Average Record
Temperature  
Mean Temperature 75 °F 65 °F  
Max Temperature 90 °F 76 °F 103 °F (2013)
Min Temperature 60 °F 54 °F 42 °F (1942)
Degree Days  
Heating Degree Days 0 2  
Month to date heating degree days 14 29  
Since 1 July heating degree days 651 1526  
Cooling Degree Days 10 2  
Month to date cooling degree days 64 24  
Year to date cooling degree days 225 75  
Growing Degree Days 26 (Base 50)    
Moisture  
Dew Point 19 °F    
Average Humidity 15    
Maximum Humidity 23    
Minimum Humidity 6    
Precipitation  
Precipitation 0.00 in 0.01 in 1.80 in (1998)
Month to date precipitation T 0.19  
Year to date precipitation 4.91 12.28  
Since 1 July precipitation 5.34 17.04  
Sea Level Pressure  
Sea Level Pressure 29.95 in    
Wind  
Wind Speed 9 mph (West)    
Max Wind Speed 24 mph    
Max Gust Speed 30 mph    
Visibility 10 miles    
Events      
T = Trace of Precipitation, MM = Missing Value Source: NWS Daily Summary

Daily Weather History Graph

Daily Weather History Graph

Search for Another Location

Airport:

Trip Planner

Search our weather history database for the weather conditions in past years. The results will help you decide how hot, cold, wet, or windy it might be!

Date:

Astronomy

May. 12, 2014 Rise Set
Actual Time 5:53 AM PDT 7:46 PM PDT
Civil Twilight 5:26 AM PDT 8:13 PM PDT
Nautical Twilight 4:53 AM PDT 8:47 PM PDT
Astronomical Twilight 4:17 AM PDT 9:22 PM PDT
Moon 5:54 PM PDT (5/12) 4:29 AM PDT (5/12)
Length of Visible Light 14h 47m
Length of Day
13h 52m
Waxing Gibbous, 95% of the Moon is Illuminated
May 12
Waxing Gibbous
May 14
Full
May 21
Last Quarter
May 28
New
Jun 5
First Quarter

Hourly Weather History & Observations

Time (PDT) Temp. Dew Point Humidity Pressure Visibility Wind Dir Wind Speed Gust Speed Precip Events Conditions
12:53 AM 68.0 °F 21.9 °F 17% 29.94 in 10.0 mi NNW 9.2 mph - N/A   Clear
1:53 AM 66.9 °F 21.9 °F 18% 29.94 in 10.0 mi NNW 10.4 mph - N/A   Clear
2:53 AM 66.9 °F 19.9 °F 17% 29.94 in 10.0 mi North 8.1 mph - N/A   Clear
3:53 AM 64.0 °F 21.9 °F 20% 29.95 in 10.0 mi West 4.6 mph - N/A   Clear
4:53 AM 62.1 °F 21.9 °F 21% 29.94 in 10.0 mi North 5.8 mph - N/A   Clear
5:53 AM 62.1 °F 21.9 °F 21% 29.95 in 10.0 mi West 6.9 mph - N/A   Clear
7:53 AM 72.0 °F 24.1 °F 17% 29.99 in 10.0 mi NNE 9.2 mph - N/A   Clear
8:53 AM 77.0 °F 25.0 °F 15% 29.99 in 10.0 mi Variable 5.8 mph - N/A   Clear
9:53 AM 81.0 °F 15.1 °F 8% 29.99 in 10.0 mi South 6.9 mph - N/A   Clear
10:53 AM 82.9 °F 15.1 °F 8% 29.99 in 10.0 mi ESE 3.5 mph - N/A   Clear
11:53 AM 84.0 °F 12.9 °F 7% 29.99 in 10.0 mi West 8.1 mph - N/A   Clear
12:53 PM 86.0 °F 16.0 °F 7% 29.98 in 10.0 mi South 12.7 mph 16.1 mph N/A   Clear
1:53 PM 87.1 °F 15.1 °F 7% 29.96 in 10.0 mi South 9.2 mph 24.2 mph N/A   Clear
2:53 PM 89.1 °F 16.0 °F 7% 29.93 in 10.0 mi South 16.1 mph 21.9 mph N/A   Clear
3:53 PM 88.0 °F 15.1 °F 7% 29.90 in 10.0 mi SSW 16.1 mph 23.0 mph N/A   Clear
4:23 PM 87.8 °F 15.8 °F 7% 29.94 in 10.0 mi SE 12.7 mph - N/A   Clear
4:53 PM 88.0 °F 14.0 °F 6% 29.90 in 10.0 mi South 12.7 mph - N/A   Clear
5:53 PM 87.1 °F 18.0 °F 8% 29.90 in 10.0 mi ESE 10.4 mph - N/A   Clear
6:27 PM 86.0 °F 17.6 °F 8% 29.94 in 10.0 mi WSW 24.2 mph 29.9 mph N/A   Clear
6:40 PM 84.2 °F 17.6 °F 8% 29.94 in 10.0 mi West 16.1 mph 23.0 mph N/A   Clear
6:53 PM 84.9 °F 17.1 °F 8% 29.91 in 10.0 mi WSW 17.3 mph - N/A   Clear
7:53 PM 80.1 °F 19.0 °F 10% 29.93 in 10.0 mi West 16.1 mph - N/A   Clear
8:53 PM 78.1 °F 21.0 °F 12% 29.95 in 10.0 mi WNW 6.9 mph - N/A   Clear
9:53 PM 75.0 °F 21.0 °F 13% 29.97 in 10.0 mi NW 5.8 mph - N/A   Clear
10:53 PM 71.1 °F 25.0 °F 18% 29.97 in 10.0 mi West 6.9 mph - N/A   Clear
11:53 PM 73.9 °F 15.1 °F 11% 29.96 in 10.0 mi NNW 10.4 mph - N/A   Clear